[[{"header":{"parameterUnit":"m.s-1","parameterCategory":1,"la1":30.2991,"la2":30.254,"lo1":-89.0895,"lo2":-89.0444,"dy":0.0017,"dx":0.0017,"nx":28,"ny":28,"refTime":"2023-08-10T03:00:00:Z","depth":0,"parameterNumber":2,"parameterNumberName":"U-component_of_WINDS"},"data":[0,0,0,0,0,0,0,0,0,0,0,0,0,0,0,0,0,0,0,0,0,0,0,0,0,0,0,0,0,0,0,0,0,0,0,0,0,0,0,0,0,0,0,0,0,0,0,0,0,0,0,0,0,0,0,0,0,0,4.3866,4.3867,0,4.4021,4.4023,4.4024,4.3972,4.3969,4.3965,4.3962,4.4122,4.4129,4.4137,0,0,0,0,0,0,0,0,0,0,0,0,0,4.3522,4.3529,4.3865,4.3867,4.3869,4.4021,4.4023,4.4025,4.3973,4.3968,4.3964,4.396,4.412,4.4129,4.4137,0,0,0,0,0,0,0,0,0,0,0,0,0,4.3674,4.3531,4.3865,4.3861,4.3863,4.402,4.4023,4.4026,4.3973,4.3968,4.3963,4.3958,4.4117,4.4128,4.4139,4.431,0,0,4.4173,4.4178,0,0,0,0,0,0,0,0,4.3666,4.3687,4.386,4.3862,4.3864,4.3972,4.3961,4.4121,4.3975,4.3931,4.3962,4.3956,4.4076,4.4091,4.4131,4.4317,4.4324,4.4174,4.4181,4.4185,4.4189,0,0,0,0,0,0,0,4.3655,4.368,4.3927,4.3863,4.3865,4.3852,4.3868,4.3991,4.4031,4.3935,4.3931,4.395,4.4076,4.412,4.4134,4.4326,4.4173,4.4183,4.419,4.4195,4.4657,4.4663,0,0,0,0,0,0,4.3644,4.3671,4.3922,4.3932,4.375,4.3862,4.388,4.3942,4.4029,4.4037,4.3955,4.3947,4.4104,4.4121,4.414,4.4343,4.4185,4.4196,4.4202,4.4652,4.4659,4.4665,0,0,0,0,0,0,4.3636,4.3667,4.3916,4.3801,4.3831,4.3873,4.3944,4.3948,4.3992,4.4044,4.4051,4.3992,4.41,4.4124,4.4267,4.4348,4.4201,4.4211,4.4645,4.4654,4.4662,4.4753,0,0,0,0,0,0,4.3627,4.3664,4.373,4.3803,4.3838,4.4041,4.3949,4.3955,4.4011,4.4003,4.4081,4.4089,4.4098,4.4251,4.4278,4.4361,4.422,4.4638,4.4649,4.4659,4.4743,4.4763,4.4781,0,0,0,0,0,4.3615,4.375,4.3734,4.3764,4.3921,4.4046,4.4066,4.4073,4.4018,4.4084,4.4117,4.4087,4.4335,4.4266,4.4296,4.4383,4.4633,4.4646,4.4658,4.4734,4.4759,4.4781,0,0,0,0,0,0,4.3687,4.376,4.3742,4.3905,4.397,4.4037,4.412,4.41,4.4182,4.4171,4.4177,4.4195,4.4341,4.4377,4.4298,4.4552,4.4476,4.4495,4.4523,4.4547,4.4566,4.4554,4.4229,0,0,0,0,0,4.3722,4.3818,4.3876,4.4014,4.4047,4.4078,4.4133,4.4133,4.42,4.4227,4.4271,4.4337,4.443,4.4491,4.4579,4.4748,4.4763,4.4823,4.4842,4.4857,4.4874,4.4963,4.4989,4.4706,4.4706,4.4706,0,0,4.3796,4.3847,4.3907,4.403,4.408,4.4178,4.4102,4.4209,4.4282,4.4244,4.438,4.4415,4.4489,4.4645,4.4716,4.4679,4.4955,4.4874,4.4885,4.4893,4.4978,4.5005,4.5029,4.4715,4.4713,4.4712,0,0,4.3978,4.4028,4.4147,4.4198,4.4274,4.4293,4.4322,4.4392,4.4413,4.455,4.4523,4.4609,4.4769,4.4822,4.487,4.5071,4.5046,4.51,4.5199,4.5286,4.5308,4.5328,4.5397,4.5422,4.5116,4.5117,4.5117,0,4.406,4.4206,4.4211,4.432,4.4374,4.4343,4.4463,4.4513,4.4614,4.4652,4.4609,4.4807,4.4856,4.5022,4.5071,4.5112,4.5143,4.5091,4.5305,4.5325,4.5343,4.5409,4.5435,4.5122,4.5122,4.5121,4.5121,0,4.4302,4.4404,4.4491,4.4587,4.4652,4.4766,4.4787,4.4851,4.4845,4.4869,4.5008,4.5064,4.5162,4.5202,4.5198,4.5367,4.5342,4.5302,4.5226,4.5376,4.5438,4.5463,4.5131,4.5129,4.5127,4.5126,0,0,4.4535,4.4632,4.4663,4.4706,4.4786,4.4865,4.4977,4.5072,4.5125,4.5196,4.5289,4.5424,4.5387,4.5442,4.5443,4.552,4.5672,4.5471,4.5472,4.5504,4.5859,4.5887,4.5916,4.5656,4.5661,4.5665,4.5852,0,4.4723,4.4919,4.4925,4.5104,4.5197,4.5168,4.5265,4.5325,4.5349,4.5431,4.5459,4.5554,4.5499,4.5531,4.5606,4.5638,4.5743,4.5625,4.5741,4.5745,4.5721,4.5949,4.5979,4.6153,4.5877,4.5881,4.5884,0,4.4968,4.5045,4.5232,4.5297,4.5336,4.5423,4.5509,4.5589,4.5655,4.5667,4.5727,4.5717,4.583,4.575,4.5906,4.5825,4.5873,4.5896,4.5903,4.5912,4.5822,4.5963,4.6209,4.6235,4.5923,4.5919,4.5917,0,4.5117,4.5267,4.5398,4.5435,4.5515,4.5576,4.5612,4.5673,4.5729,4.5804,4.584,4.5928,4.5976,4.6044,4.6057,4.5999,4.6212,4.6134,4.6224,4.6224,4.6269,4.6266,4.6525,4.6304,4.6304,4.6303,4.6303,0,4.5324,4.544,4.5465,4.5545,4.5673,4.5679,4.5805,4.5837,4.5891,4.5976,4.5957,4.6038,4.6051,4.6135,4.6146,4.6271,4.6294,4.6306,4.6307,4.6307,4.6305,4.6337,4.6324,4.631,4.6309,4.6307,4.6306,0,4.5512,4.5533,4.5673,4.5736,4.5755,4.5846,4.5899,4.5976,4.5997,4.6105,4.6131,4.6166,4.6263,4.6283,4.6398,4.6405,4.6554,4.6544,4.6531,4.6529,4.6617,4.6608,4.6904,4.6942,4.6699,4.6701,4.6703,0,4.5642,4.573,4.5801,4.5856,4.5894,4.5984,4.604,4.6049,4.6108,4.6189,4.6255,4.635,4.6426,4.6581,4.6617,4.6704,4.6695,4.6793,4.6708,4.6704,4.6694,4.6687,4.6695,4.6809,4.6811,4.6814,4.6815,0,4.587,4.5876,4.5957,4.6042,4.6108,4.6176,4.624,4.6286,4.6304,4.6371,4.6469,4.6528,4.6644,4.6737,4.6824,4.6861,4.6841,4.6842,4.6867,4.6866,4.6854,4.6859,4.6573,4.6835,4.6833,4.6831,4.683,4.683,4.6031,4.6106,4.6168,4.6258,4.6307,4.6366,4.644,4.647,4.6552,4.6647,4.6647,4.6754,4.6816,4.693,4.6972,4.7055,4.7024,4.7061,4.707,4.7078,4.7085,4.6842,4.7071,4.7071,4.707,4.707,4.7069,0,4.6256,4.6293,4.6376,4.6465,4.6536,4.651,4.6579,4.664,4.6734,4.6793,4.6867,4.6978,4.7068,4.711,4.7198,4.7257,4.725,4.7279,4.7274,4.7282,4.7109,4.7077,4.7283,4.7283,4.7283,4.7283,4.7283,4.7283,4.6381,4.6506,4.6519,4.6667,4.6704,4.6807,4.6848,4.6903,4.6949,4.7074,4.7148,4.7174,4.7226,4.7318,4.7398,4.7408,4.7441,4.7475,4.748,4.7317,4.7295,4.7274,4.7244,4.7482,4.7483,4.7646,4.7648,4.7649]},{"header":{"parameterUnit":"m.s-1","parameterCategory":1,"la1":30.2991,"la2":30.254,"lo1":-89.0895,"lo2":-89.0444,"dy":0.0017,"dx":0.0017,"nx":28,"ny":28,"refTime":"2023-08-10T03:00:00:Z","depth":0,"parameterNumber":3,"parameterNumberName":"V-component_of_WINDS"},"data":[0,0,0,0,0,0,0,0,0,0,0,0,0,0,0,0,0,0,0,0,0,0,0,0,0,0,0,0,0,0,0,0,0,0,0,0,0,0,0,0,0,0,0,0,0,0,0,0,0,0,0,0,0,0,0,0,0,0,1.023,1.023,0,1.0222,1.0222,1.0222,1.0185,1.0184,1.0183,1.0182,1.0175,1.0176,1.0176,0,0,0,0,0,0,0,0,0,0,0,0,0,1.0215,1.0216,1.023,1.023,1.023,1.0222,1.0222,1.0222,1.0185,1.0184,1.0183,1.0182,1.0175,1.0176,1.0176,0,0,0,0,0,0,0,0,0,0,0,0,0,1.0216,1.0216,1.023,1.0211,1.0209,1.0222,1.0222,1.0222,1.0185,1.0184,1.0182,1.0181,1.0175,1.0175,1.0176,1.0208,0,0,1.0179,1.018,0,0,0,0,0,0,0,0,1.0216,1.0217,1.0214,1.0212,1.021,1.0203,1.0214,1.0217,1.0185,1.0194,1.0182,1.018,1.0185,1.0185,1.0187,1.0208,1.0208,1.0179,1.018,1.018,1.0181,0,0,0,0,0,0,0,1.0216,1.0217,1.0227,1.0214,1.0211,1.0202,1.0201,1.0214,1.0197,1.0193,1.019,1.019,1.0184,1.0186,1.0186,1.0208,1.0179,1.018,1.0181,1.0181,1.0254,1.0255,0,0,0,0,0,0,1.0219,1.0217,1.0227,1.0227,1.021,1.0204,1.0202,1.0207,1.0197,1.0194,1.0191,1.0188,1.0185,1.0185,1.0186,1.0222,1.018,1.0181,1.0182,1.0252,1.0254,1.0256,0,0,0,0,0,0,1.0218,1.022,1.0228,1.0221,1.0221,1.0205,1.0211,1.0207,1.0209,1.0195,1.0192,1.0196,1.0184,1.0185,1.0203,1.0221,1.0182,1.0182,1.0251,1.0253,1.0255,1.0295,0,0,0,0,0,0,1.0218,1.022,1.0232,1.0222,1.0222,1.0245,1.0212,1.0208,1.021,1.0206,1.0199,1.0197,1.0183,1.0202,1.0204,1.0222,1.0183,1.0249,1.0252,1.0254,1.0292,1.0299,1.0304,0,0,0,0,0,1.0218,1.0244,1.0233,1.0234,1.0236,1.0246,1.0246,1.0229,1.0212,1.0224,1.0215,1.0197,1.0219,1.0204,1.0206,1.0225,1.0248,1.0251,1.0254,1.029,1.0297,1.0304,0,0,0,0,0,0,1.0258,1.0243,1.023,1.0254,1.0251,1.0239,1.0254,1.0238,1.0241,1.0237,1.0217,1.0216,1.0237,1.0232,1.0216,1.0255,1.023,1.0234,1.0257,1.0264,1.027,1.027,1.0184,0,0,0,0,0,1.027,1.0278,1.0264,1.0287,1.0286,1.027,1.0274,1.0261,1.0258,1.0257,1.0249,1.0247,1.0254,1.0259,1.0264,1.0291,1.0289,1.0305,1.0311,1.0316,1.032,1.0333,1.034,1.0266,1.0266,1.0266,0,0,1.0294,1.0287,1.0293,1.0295,1.0291,1.0301,1.027,1.0281,1.0288,1.0259,1.0275,1.027,1.0266,1.0289,1.0299,1.0286,1.0339,1.032,1.0324,1.0325,1.0337,1.0344,1.035,1.0268,1.0267,1.0267,0,0,1.0343,1.0338,1.0356,1.0353,1.0348,1.0337,1.0341,1.0332,1.0326,1.0342,1.032,1.0328,1.034,1.0338,1.0339,1.0385,1.0369,1.0388,1.0418,1.0432,1.0438,1.0443,1.0459,1.0465,1.0391,1.0391,1.0391,0,1.0374,1.0387,1.0368,1.038,1.0381,1.0354,1.0372,1.037,1.0367,1.0369,1.0354,1.0368,1.0363,1.0385,1.0396,1.0398,1.0402,1.0389,1.0438,1.0443,1.0448,1.0463,1.047,1.0394,1.0393,1.0393,1.0393,0,1.0425,1.0435,1.045,1.0446,1.0449,1.0464,1.0447,1.0452,1.0439,1.043,1.0446,1.044,1.0443,1.0447,1.0434,1.0467,1.0459,1.0442,1.0417,1.0457,1.0472,1.0477,1.0397,1.0396,1.0395,1.0395,0,0,1.0501,1.0485,1.0491,1.0489,1.0481,1.0488,1.0501,1.0504,1.0508,1.0507,1.0518,1.0528,1.0512,1.0512,1.0499,1.0511,1.0548,1.0492,1.0492,1.0503,1.0583,1.0596,1.0603,1.0537,1.0538,1.0539,1.0583,0,1.0547,1.0569,1.0552,1.0577,1.0585,1.0559,1.0571,1.0567,1.0558,1.0564,1.0555,1.0562,1.054,1.054,1.0551,1.0541,1.0564,1.0538,1.0547,1.0548,1.0549,1.061,1.0624,1.0666,1.0588,1.0589,1.059,0,1.0605,1.0605,1.0631,1.062,1.0622,1.0634,1.0634,1.0639,1.0634,1.0627,1.0627,1.0611,1.0623,1.0599,1.0616,1.0599,1.0601,1.0597,1.0598,1.0599,1.0571,1.0612,1.0679,1.0686,1.0599,1.0598,1.0597,0,1.0657,1.0663,1.068,1.0679,1.0666,1.0674,1.067,1.0663,1.0666,1.0666,1.0667,1.0669,1.067,1.0672,1.0656,1.064,1.0676,1.065,1.067,1.0671,1.0679,1.0679,1.0748,1.0681,1.0681,1.0681,1.068,0,1.0711,1.0728,1.0703,1.0713,1.0731,1.071,1.0729,1.0721,1.0716,1.0724,1.0701,1.071,1.0688,1.0694,1.0682,1.0698,1.0699,1.0694,1.069,1.0696,1.0696,1.0697,1.0694,1.0682,1.0682,1.0682,1.0681,0,1.0772,1.0756,1.0772,1.0758,1.0755,1.0769,1.0758,1.0766,1.0756,1.0766,1.0768,1.0751,1.0757,1.0741,1.0745,1.0737,1.076,1.0752,1.0761,1.0759,1.078,1.0778,1.0852,1.086,1.0788,1.0789,1.079,0,1.0807,1.082,1.0807,1.081,1.0807,1.0813,1.0814,1.0794,1.0797,1.0792,1.0801,1.0805,1.0807,1.0817,1.0806,1.0809,1.08,1.0826,1.0801,1.0806,1.0801,1.08,1.0801,1.0831,1.0832,1.0833,1.0834,0,1.0872,1.0863,1.0866,1.0866,1.0868,1.0868,1.0865,1.087,1.0848,1.0852,1.0857,1.0859,1.0862,1.0866,1.0866,1.0861,1.0844,1.0841,1.0846,1.0852,1.0857,1.0854,1.0775,1.084,1.0839,1.0839,1.0839,1.0838,1.0921,1.0931,1.0923,1.0927,1.0922,1.0921,1.0928,1.0917,1.0921,1.0922,1.091,1.0917,1.0911,1.0909,1.0906,1.0912,1.09,1.0907,1.0909,1.0911,1.0915,1.0856,1.0912,1.0912,1.0912,1.0911,1.0911,0,1.0984,1.0978,1.0981,1.0978,1.0981,1.0964,1.096,1.0964,1.097,1.0966,1.0968,1.0973,1.0977,1.0965,1.0967,1.0974,1.0966,1.0975,1.0975,1.0974,1.0925,1.0921,1.0982,1.0982,1.0981,1.0981,1.0981,1.0981,1.1018,1.1032,1.1022,1.1034,1.1027,1.1034,1.1033,1.1031,1.1028,1.1035,1.1037,1.1029,1.1022,1.1023,1.1025,1.1022,1.1023,1.1035,1.1029,1.0984,1.0977,1.0971,1.0966,1.1036,1.1036,1.1077,1.1077,1.1078]}]]